OpenBCM V1.08-5-g2f4a (Linux)

Packet Radio Mailbox

IZ3LSV

[San Dona' di P. JN]

 Login: GUEST





  
I0OJJ  > KEPS     01.05.25 02:25l 355 Lines 16922 Bytes #168 (0) @ AMSAT
BID : ORB25121.1
Read: GUEST
Subj: 2Line Orbital Elements 25121.AMSAT
Path: IZ3LSV<I0OJJ
Sent: 250501/0025z @:I0OJJ.ITA.EU [Rome] obcm1.08-6-g5b69
From: I0OJJ @ I0OJJ.ITA.EU (Gustavo)
To:   KEPS @ AMSAT
X-Info: This message was generated automatically


QST de W1STR

AMSAT Orbital Elements for Amateur Satellites in TLE Format
From Orbital Analysis Office
New England Sci-Tech STEM Education Center
Natick, MA May 01, 2025
To all radio amateurs


These element sets describe the orbits of various satellites 
in use by the amateur radio community. For details see:
www.amsat.org/keplerian-elements-formats/

A daily update of element sets is available at:
www.amsat.org/tle/daily-bulletin.txt
or without bulletin text:
www.amsat.org/tle/dailytle.txt


AO-07
1 07530U 74089B   25118.98315863 -.00000043  00000-0  19207-4 0  9994
2 07530 101.9948 122.8030 0012098 199.8463 185.7233 12.53688737308612
UO-11
1 14781U 84021B   25118.87860111  .00002722  00000-0  29321-3 0  9998
2 14781  97.7512  86.0854 0009388 110.0458 250.1771 14.89243006195434
AO-27
1 22825U 93061C   25118.60872717  .00000245  00000-0  11065-3 0  9990
2 22825  98.7399 179.9484 0007536 230.7748 129.2765 14.30783007647710
FO-29
1 24278U 96046B   25118.46204864  .00000036  00000-0  69770-4 0  9991
2 24278  98.5800  17.8907 0350938  91.7090 272.4272 13.53245254417070
NOAA-15
1 25338U 98030A   25119.16101560  .00000351  00000-0  16183-3 0  9990
2 25338  98.5388 145.2830 0011413 118.2003 242.0331 14.26953622402496
GO-32
1 25397U 98043D   25119.17477425  .00000190  00000-0  10250-3 0  9996
2 25397  98.9681  97.4361 0001214  19.5373 340.5852 14.24302713392610
ISS
1 25544U 98067A   25119.19035294  .00013779  00000-0  25440-3 0  9996
2 25544  51.6352 189.7367 0002491  81.0639 279.0631 15.49383308507563
NO-44
1 26931U 01043C   25118.73177961  .00000434  00000-0  19359-3 0  9998
2 26931  67.0509 236.0354 0005653 272.0234  88.0221 14.31711029231110
SO-50
1 27607U 02058C   25118.97298168  .00002341  00000-0  30955-3 0  9999
2 27607  64.5548 328.9558 0051361 343.8269  16.1194 14.81500146203273
CO-55
1 27844U 03031E   25118.73127007  .00000674  00000-0  31289-3 0  9999
2 27844  98.6776 127.5432 0008693 314.6534  45.3935 14.23958667132686
CO-57
1 27848U 03031J   25117.95721345  .00000644  00000-0  30373-3 0  9991
2 27848  98.6803 126.8164 0008972 335.5185  24.5566 14.23297888132353
RS-22
1 27939U 03042A   25119.22399515  .00002446  00000-0  39549-3 0  9992
2 27939  98.3248 287.6869 0012405 137.2085 337.8323 14.72231041154745
NOAA-18
1 28654U 05018A   25119.21523558  .00000353  00000-0  21074-3 0  9996
2 28654  98.8423 199.1560 0013242 244.2960 115.6845 14.13586798 27901
CO-58
1 28895U 05043F   25118.81935836  .00003579  00000-0  59252-3 0  9994
2 28895  98.2435 262.6660 0015740  81.4624 278.8365 14.70849730 41035
CO-65
1 32785U 08021C   25118.89629355  .00009429  00000-0  68677-3 0  9991
2 32785  97.7831  89.7745 0009978   7.8833 352.2547 15.03946257922816
AAUSAT2
1 32788U 08021F   25118.96090224  .00454405  00000-0  22724-2 0  9999
2 32788  97.5968 115.9067 0009241 136.0137 224.1867 15.80574008926926
CO-66
1 32791U 08021J   25118.91716510  .00020710  00000-0  10323-2 0  9991
2 32791  97.7262  98.0694 0002526 354.6275   5.4931 15.17576621924176
RS-30
1 32953U 08025A   25119.19669364  .00000046  00000-0  25684-3 0  9997
2 32953  82.5012 252.9114 0020385 135.0151 225.2584 12.43163309768393
NOAA-19
1 33591U 09005A   25119.14418203  .00000322  00000-0  19539-3 0  9993
2 33591  98.9997 183.6116 0014786 119.6031 240.6616 14.13351206836252
SRMSAT
1 37841U 11058D   25119.09123112  .00000594  00000-0  17889-3 0  9999
2 37841  19.9727  45.6087 0011602 328.8284  61.4407 14.11420483699469
ZACUBE-1
1 39417U 13066B   25118.86138594  .00007059  00000-0  61885-3 0  9993
2 39417  97.7769  76.1196 0044071 189.4523 170.5874 14.96212600618670
Delfi-N3xt
1 39428U 13066N   25118.73610651  .00010411  00000-0  10707-2 0  9992
2 39428  97.8371  36.8770 0087063 137.2693 223.5337 14.87693593612851
GOMX-1
1 39430U 13066Q   25119.16781055  .00002926  00000-0  46125-3 0  9996
2 39430  97.6879 340.3667 0132019 325.5793  33.6912 14.67471033609337
LO-74
1 39440U 13066AA  25119.10239043  .00008344  00000-0  84930-3 0  9992
2 39440  97.8473  63.9665 0061330 318.3401  41.3153 14.89585780616463
AO-73
1 39444U 13066AE  25118.84355292  .00012095  00000-0  91855-3 0  9993
2 39444  97.7765  80.6256 0041505 165.9181 194.3210 15.01638810617322
DTUSAT-2
1 40030U 14033W   25118.88517846  .00011281  00000-0  74410-3 0  9994
2 40030  98.0526  88.7163 0008762 188.6335 171.4742 15.07619361590110
EO-80
1 40032U 14033Y   25118.90761513  .00012129  00000-0  79780-3 0  9998
2 40032  98.0421  88.4524 0010189 131.3229 228.8876 15.07690554590092
LILACSAT-2
1 40908U 15049K   25119.17669847  .00015998  00000-0  43133-3 0  9995
2 40908  97.5086 138.5476 0007688 317.2417  42.8229 15.37865097531867
IO-86
1 40931U 15052B   25038.81889873  .00001817  00000-0  15548-3 0  9993
2 40931   6.0001 108.1159 0012838 187.7041 172.2889 14.78568669506492
Horyu-4
1 41340U 16012D   25118.95352417  .00034868  00000-0  99218-3 0  9996
2 41340  30.9979  51.4807 0008004 336.5466  23.4813 15.34883508506389
Lapan A3
1 41603U 16040E   25119.22423881  .00005938  00000-0  20951-3 0  9998
2 41603  97.1379 125.4621 0012812  62.6680 297.5864 15.29529394491469
CAS-2T
1 41847U 16066G   25118.81201827  .00001292  00000-0  19425-3 0  9997
2 41847  98.4211 193.6342 0345497 304.9877  51.9325 14.43371058444990
CAS-4B
1 42759U 17034B   25119.19082618  .00067002  00000-0  85892-3 0  9995
2 42759  43.0079 207.6183 0019376 358.0956   1.9831 15.58052151436133
CAS-4A
1 42761U 17034D   25119.18915789  .00073528  00000-0  90712-3 0  9998
2 42761  43.0113 205.1725 0020608   2.6255 357.4714 15.58998816436152
TechnoSat
1 42829U 17042E   25119.19528407  .00005523  00000-0  43090-3 0  9997
2 42829  97.3927 289.8833 0015563  63.1936 297.0878 15.01440644424519
AO-91
1 43017U 17073E   25118.09039366  .00014789  00000-0  76979-3 0  9996
2 43017  97.5319 349.9451 0173018 311.8195  46.8363 15.04016571402820
S-Net D
1 43186U 18014G   25118.66278814  .00009063  00000-0  54034-3 0  9992
2 43186  97.5666  22.0035 0009763  20.8968 339.2659 15.11354952396048
S-Net B
1 43187U 18014H   25118.66765250  .00009246  00000-0  55138-3 0  9997
2 43187  97.5671  21.9779 0010304  15.3992 344.7549 15.11336440396048
S-Net A
1 43188U 18014J   25118.66331465  .00009029  00000-0  53822-3 0  9992
2 43188  97.5679  22.1180 0010231  16.5987 343.5576 15.11360287396045
S-Net C
1 43189U 18014K   25118.66995717  .00009262  00000-0  55223-3 0  9995
2 43189  97.5695  22.1317 0011462   7.5349 352.6051 15.11333619394591
Ten-Koh
1 43677U 18084G   25118.91671997  .00004511  00000-0  36431-3 0  9995
2 43677  98.0909 289.5174 0008163  65.0599 295.1470 15.00354229353990
PO-101
1 43678U 18084H   25119.18122351  .00003794  00000-0  32537-3 0  9996
2 43678  98.1030 293.7369 0009968  67.7657 292.4620 14.98125883354185
QO-100
1 43700U 18090A   25119.10563456  .00000144  00000-0  00000+0 0  9998
2 43700   0.0368  91.2927 0001725 344.4752 205.3689  1.00272808 23766
MinXSS-2
1 43758U 18099A   25118.92779905  .00024224  00000-0  99061-3 0  9991
2 43758  97.5040 184.8649 0010409 302.9772  57.0464 15.24294539350624
AO-95
1 43770U 18099N   25118.82495106  .00014413  00000-0  74364-3 0  9990
2 43770  97.4948 177.3885 0010364   6.8867 353.2507 15.16396254350221
RANGE-A
1 43773U 18099R   25118.09212606  .00009699  00000-0  62223-3 0  9995
2 43773  97.4516 167.7276 0010748 344.9372  15.1535 15.08643738349816
MOVE-II
1 43780U 18099Y   25118.85961793  .00165955  00000-0  19569-2 0  9997
2 43780  97.4683 191.8032 0004269 238.7491 121.3348 15.60798264351267
SNUSat 2
1 43782U 18099AA  25118.11709440  .00014484  00000-0  80205-3 0  9993
2 43782  97.4629 173.7811 0010562 303.3382  56.6838 15.13884021350071
SnugLite
1 43784U 18099AC  25118.60014711  .00014620  00000-0  74875-3 0  9997
2 43784  97.4446 173.7354 0001859 316.2143  43.8943 15.16697466350274
ITASat 1
1 43786U 18099AE  25118.40782930  .00011538  00000-0  66731-3 0  9999
2 43786  97.4604 173.6969 0013979 359.1087   1.0116 15.12340012350087
EAGLET 1
1 43790U 18099AJ  25118.10771974  .00008924  00000-0  57277-3 0  9997
2 43790  97.4794 173.4937 0011362 341.8675  18.2147 15.08648231349665
ESEO
1 43792U 18099AL  25118.57923517  .00002587  00000-0  19936-3 0  9991
2 43792  97.4511 167.7762 0010476 316.1741  43.8652 15.02438029349515
CSIM
1 43793U 18099AM  25118.76678693  .00165436  00000-0  19546-2 0  9994
2 43793  97.4858 193.9060 0006924 244.6672 115.3868 15.60733018351093
JO-97
1 43803U 18099AX  25119.05416336  .00018068  00000-0  84565-3 0  9995
2 43803  97.4693 178.5243 0006004 289.4815  70.5771 15.19781118350462
Suomi 100
1 43804U 18099AY  25118.41031076  .00015167  00000-0  75811-3 0  9990
2 43804  97.4760 177.2984 0010830 295.9966  64.0151 15.17495544350303
ISAT
1 43879U 18111D   25118.74392950  .00030655  00000-0  11157-2 0  9995
2 43879  97.5987  32.2622 0008759   3.0162 357.1128 15.28139716347303
UWE-4
1 43880U 18111E   25119.21024507  .00020783  00000-0  84371-3 0  9990
2 43880  97.5923  31.4928 0012337   7.4573 352.6845 15.24553673345320
Sparrow
1 43881U 18111F   25118.69261871  .00032262  00000-0  11347-2 0  9996
2 43881  97.6126  34.9313 0008668  42.8768 317.3145 15.29250998347382
Prox-1
1 44339U 19036A   25118.93695497  .00017360  00000-0  22595-2 0  9993
2 44339  23.9984 335.1529 0007538 320.8745  39.1207 14.79004437311938
SONATE
1 44400U 19038Q   25118.27683124  .00185266  00000-0  11272-2 0  9996
2 44400  97.6956 140.0723 0006781  73.9480 286.2531 15.76907426322872
Taurus 1
1 44530U 19059C   25119.21664458  .00010973  00000-0  20424-2 0  9998
2 44530  98.6025 256.6749 0010762 161.3874 198.7724 14.65235945297889
